Search for airport 
image banner adimage banner ad
image banner ad

DAAG - Alger / Houari Boumediene

Located in Alger, Algeria

ICAO - DAAG, IATA - ALG

Data provided by Airmate  

General information

Coordinates: N36°41'38" E3°12'52"
Elevation is 82 feet MSL.
 
Rated:
View ratings:
[VIEW]
View others Airports in Boumerdès Province

Operational data

Open for public use
Current time UTC:
Current local time:
Weather
METAR: DAAG 222330Z 27008KT 240V300 8000 FEW030 BKN100 23/14 Q1019
TAF: TAF DAAG 221700Z 2218/2318 20010KT 9999 FEW030 SCT100 BECMG 2219/2221 28008KT PROB30 2221/2224 30015G25KT PROB30 TEMPO 2303/2311 FEW023CB BECMG 2309/2312 01010KT PROB30 TEMPO 2312/2318 4000 -TSRA FEW023CB
View NOTAMs / SUP AIP / TFR affecting this airport [VIEW]
Communications frequencies: [VIEW]

Runways:

RWY identifierQFULength (ft)Width (ft)SurfaceLDA (ft)
0553°11483197ASP
23233°11483197
0992°11483148
27272°11483148

Airport contact information

Address: Alger Algeria

Satellite view of DAAG